| time (UTC) | temp F | wind direction | speed MPH | gust MPH | rain 1hr in | rain 24hr in | rain mn in | humidity % | barometer mb |
| 20260504201552 | 70 | 209 | 4.0 | 16.0 | 0.00 | 0.00 | 0.00 | 25 | 1007.5 |
| 20260504200055 | 71 | 345 | 5.0 | 15.0 | 0.00 | 0.00 | 0.00 | 24 | 1007.8 |
| 20260504194551 | 71 | 271 | 7.0 | 15.0 | 0.00 | 0.00 | 0.00 | 25 | 1007.8 |
| 20260504193048 | 70 | 286 | 6.0 | 13.0 | 0.00 | 0.00 | 0.00 | 26 | 1008.0 |
| 20260504191555 | 70 | 251 | 4.0 | 14.0 | 0.00 | 0.00 | 0.00 | 27 | 1008.3 |
| 20260504190107 | 69 | 316 | 9.0 | 17.0 | 0.00 | 0.00 | 0.00 | 27 | 1008.3 |
| 20260504184610 | 69 | 291 | 4.0 | 11.0 | 0.00 | 0.00 | 0.00 | 28 | 1008.6 |
| 20260504183056 | 68 | 283 | 4.0 | 14.0 | 0.00 | 0.00 | 0.00 | 29 | 1008.7 |
| 20260504181552 | 68 | 295 | 8.0 | 18.0 | 0.00 | 0.00 | 0.00 | 27 | 1008.8 |
| 20260504180052 | 67 | 220 | 6.0 | 16.0 | 0.00 | 0.00 | 0.00 | 27 | 1008.9 |
| 20260504174604 | 68 | 35 | 5.0 | 18.0 | 0.00 | 0.00 | 0.00 | 29 | 1009.0 |
| 20260504173057 | 67 | 285 | 4.0 | 18.0 | 0.00 | 0.00 | 0.00 | 30 | 1009.0 |
| 20260504171554 | 67 | 250 | 8.0 | 16.0 | 0.00 | 0.00 | 0.00 | 28 | 1009.3 |
| 20260504081549 | 37 | 0 | 0.0 | 2.0 | 0.00 | 0.00 | 0.00 | 64 | 1011.9 |
| 20260504044552 | 36 | 0 | 0.0 | 0.0 | 0.00 | 0.00 | 0.00 | 62 | 1012.2 |
| 20260504043055 | 37 | 0 | 0.0 | 0.0 | 0.00 | 0.00 | 0.00 | 61 | 1012.0 |
| 20260504041553 | 37 | 0 | 0.0 | 0.0 | 0.00 | 0.00 | 0.00 | 61 | 1012.0 |
| 20260504040105 | 38 | 0 | 0.0 | 0.0 | 0.00 | 0.00 | 0.00 | 60 | 1012.0 |
| 20260504034558 | 38 | 0 | 0.0 | 0.0 | 0.00 | 0.00 | 0.00 | 58 | 1012.0 |
| 20260504033123 | 38 | 0 | 0.0 | 2.0 | 0.00 | 0.00 | 0.00 | 61 | 1012.0 |
| 20260504031551 | 38 | 0 | 0.0 | 0.0 | 0.00 | 0.00 | 0.00 | 59 | 1012.0 |
| 20260504030051 | 38 | 0 | 0.0 | 0.0 | 0.00 | 0.00 | 0.00 | 59 | 1012.0 |
| 20260504024550 | 39 | 0 | 0.0 | 0.0 | 0.00 | 0.00 | 0.00 | 57 | 1012.0 |
| 20260504023100 | 40 | 0 | 0.0 | 0.0 | 0.00 | 0.00 | 0.00 | 54 | 1012.1 |
| 20260504021553 | 41 | 0 | 0.0 | 0.0 | 0.00 | 0.00 | 0.00 | 51 | 1012.1 |
| 20260504020057 | 43 | 0 | 0.0 | 0.0 | 0.00 | 0.00 | 0.00 | 47 | 1012.0 |
| 20260504014550 | 45 | 0 | 0.0 | 1.0 | 0.00 | 0.00 | 0.00 | 44 | 1012.0 |
| 20260504013100 | 46 | 0 | 0.0 | 0.0 | 0.00 | 0.00 | 0.00 | 43 | 1012.0 |
| 20260504011551 | 48 | 58 | 0.0 | 1.0 | 0.00 | 0.00 | 0.00 | 40 | 1011.6 |
| 20260504010110 | 51 | 79 | 1.0 | 3.0 | 0.00 | 0.00 | 0.00 | 33 | 1011.7 |
| 20260504004603 | 52 | 0 | 1.0 | 4.0 | 0.00 | 0.00 | 0.00 | 30 | 1011.6 |
| 20260504003051 | 53 | 63 | 1.0 | 4.0 | 0.00 | 0.00 | 0.00 | 29 | 1011.2 |
| 20260504001546 | 54 | 119 | 2.0 | 8.0 | 0.00 | 0.00 | 0.00 | 28 | 1011.1 |
| 20260504000049 | 54 | 101 | 2.0 | 7.0 | 0.00 | 0.00 | 0.00 | 27 | 1011.1 |
| 20260503234551 | 55 | 267 | 2.0 | 10.0 | 0.00 | 0.00 | 0.00 | 26 | 1010.9 |
| 20260503233052 | 55 | 288 | 3.0 | 9.0 | 0.00 | 0.00 | 0.00 | 27 | 1010.9 |
| 20260503231547 | 56 | 77 | 2.0 | 6.0 | 0.00 | 0.00 | 0.00 | 28 | 1011.0 |
| 20260503230058 | 56 | 271 | 2.0 | 4.0 | 0.00 | 0.00 | 0.00 | 28 | 1010.9 |
| 20260503224550 | 55 | 30 | 2.0 | 8.0 | 0.00 | 0.00 | 0.00 | 29 | 1010.8 |
| 20260503223058 | 55 | 35 | 1.0 | 8.0 | 0.00 | 0.00 | 0.00 | 27 | 1010.8 |
| 20260503221551 | 56 | 303 | 3.0 | 10.0 | 0.00 | 0.00 | 0.00 | 27 | 1010.9 |
| 20260503220054 | 56 | 19 | 3.0 | 7.0 | 0.00 | 0.00 | 0.00 | 27 | 1010.9 |
| 20260503214553 | 56 | 64 | 3.0 | 8.0 | 0.00 | 0.00 | 0.00 | 28 | 1011.0 |
| 20260503213103 | 57 | 259 | 4.0 | 16.0 | 0.00 | 0.00 | 0.00 | 26 | 1010.8 |
| 20260503211551 | 56 | 315 | 3.0 | 10.0 | 0.00 | 0.00 | 0.00 | 26 | 1011.0 |
| 20260503210100 | 56 | 66 | 3.0 | 11.0 | 0.00 | 0.00 | 0.00 | 27 | 1010.8 |
| 20260503204553 | 56 | 129 | 6.0 | 12.0 | 0.00 | 0.00 | 0.00 | 27 | 1010.8 |
| 20260503203047 | 56 | 347 | 4.0 | 15.0 | 0.00 | 0.00 | 0.00 | 26 | 1011.0 |